Find Tianfu Dongpo 07

NORAD ID: 53444 Int'l Des: 2022-098 Owner: CGSTL Country: CN operational
LEOCIRCULARRETROGRADE

Live Position

Loading 3D Globe...

About Tianfu Dongpo 07

Description loading...

Upcoming Passes

Passes for default location (London). Set your location on the main map for personalized predictions.

Altitude History

Loading altitude history...

Two-Line Element Set

1 53444U 22098A 26106.32696551 .00041167 00000-0 45404-3 0 9992
2 53444 97.5462 232.5592 0004691 210.9184 149.1798 15.62981810205061
Epoch: Apr 16, 2026 • Age: 9 hours

Current Status

Altitude 394.0 km
Velocity 7.67 km/s
Sub-Earth Point -36.06°S, 139.95°E
Launch Date Aug 10, 2022
Age 3.6 years
Type other

Technical Details

Classification Payload
Mass 42.00 kg
Dry Mass 42.00 kg
Total Mass 42.00 kg
Length 1.50 m
Diameter 1.00 m
Span 1.50 m
Shape Box
Manufacturer CGSTL
Bus Type JL-1
Phase Status In Orbit
Owner/State CGSTL/CN

Most Searched